Wind_Speed
31 31 32 32 31 29 27 26 24 21 19 19 19 19 17 16 16 14 13 13 14 11 11 11 9 6 7 6 7 6 6 6 3 3 3 4 13 15 13 10 8 6 3
32 31 32 31 31 29 29 29 28 28 25 23 21 20 18 15 16 16 16 15 14 14 14 14 13 10 8 6 6 6 6 7 4 5 7 8 12 15 12 11 8 6 4
31 31 33 30 29 28 28 29 30 29 28 25 23 22 19 17 19 18 18 17 14 14 12 12 10 11 10 10 9 8 7 8 8 6 7 11 12 16 14 12 9 7 5
29 30 30 30 29 27 26 25 25 25 28 27 25 22 22 20 17 19 18 18 17 14 12 11 12 13 13 12 12 11 10 10 9 9 8 10 14 18 18 17 12 9 7
28 28 32 30 30 27 23 24 22 21 24 28 28 27 24 23 20 20 20 18 16 16 15 13 12 11 9 10 11 12 12 12 11 10 8 7 12 17 20 19 14 13 8
21 25 26 26 26 26 27 24 22 19 21 20 24 26 27 27 25 21 22 21 19 17 17 16 15 13 12 12 12 12 12 13 13 11 13 11 16 17 20 20 17 11 4
18 21 21 21 21 23 25 27 27 21 17 10 18 21 24 27 27 25 24 23 22 21 19 18 18 16 14 12 12 11 11 12 13 13 13 14 15 21 21 22 22 18 8
8 11 13 15 19 17 20 26 31 31 32 28 39 35 30 27 26 23 25 25 24 22 21 21 21 19 16 13 10 9 7 8 10 11 11 10 10 13 17 19 20 17 9
1 3 4 5 9 10 14 22 26 29 31 39 43 40 36 33 25 23 25 27 25 25 24 24 24 22 18 14 12 11 9 7 7 7 7 7 7 9 11 12 17 19 5
4 7 8 9 10 11 12 16 24 33 36 37 37 36 35 37 25 23 28 28 27 26 25 25 25 25 20 16 16 14 13 11 11 10 9 8 7 7 7 8 12 16 9
8 11 12 12 11 12 13 12 17 22 26 30 31 27 31 30 27 27 28 27 28 26 27 25 25 22 20 16 16 15 13 14 14 12 10 10 10 8 6 5 6 11 10
7 7 8 9 10 10 11 11 10 15 20 23 21 21 27 25 25 21 19 24 28 27 29 27 21 20 18 16 19 16 12 15 16 15 14 12 12 11 11 10 8 8 5
8 8 8 6 6 7 5 6 6 8 14 15 18 19 23 29 27 23 18 17 18 21 23 19 18 18 17 19 17 15 16 18 20 20 20 17 18 18 19 21 22 22 22
7 7 6 6 4 4 2 2 3 5 6 10 13 16 19 22 24 27 25 23 23 21 22 20 20 20 21 20 17 17 18 19 21 23 25 20 20 21 21 21 23 22 25
9 8 8 9 9 11 10 5 2 1 3 7 9 12 14 16 18 20 22 26 31 36 29 24 22 23 24 24 22 21 22 24 25 24 20 20 21 20 20 20 16 17 18
9 8 10 10 13 16 15 16 11 7 3 1 4 7 8 8 10 11 17 21 22 35 29 23 22 24 25 26 25 26 27 28 25 24 21 21 19 17 17 17 19 20 20
7 7 6 7 10 13 13 15 11 20 13 11 9 6 5 8 8 12 20 28 26 26 27 22 21 22 24 27 30 31 30 26 23 21 20 20 20 20 21 21 20 20 19
7 6 4 3 6 7 9 8 9 16 14 18 19 17 18 21 20 20 20 18 19 22 23 23 21 23 23 26 28 27 24 23 21 20 21 21 21 20 20 19 18 19 19
11 10 5 3 3 4 6 6 7 10 14 15 17 19 19 20 21 17 19 22 23 23 24 24 24 26 27 25 23 23 21 22 21 21 19 20 20 20 17 17 17 17 15
11 9 7 7 7 7 7 7 6 6 9 13 12 13 13 15 12 13 13 15 17 19 21 23 23 23 22 19 19 20 19 20 20 20 20 19 17 18 18 18 18 17 15
13 12 10 9 7 6 6 6 7 8 8 10 11 13 12 11 10 9 11 10 9 12 15 17 18 19 19 18 18 19 20 20 19 19 20 19 17 16 14 13 14 16 16
14 13 11 10 8 7 6 6 6 6 6 8 11 14 14 12 11 9 7 5 6 9 12 14 15 17 18 18 18 20 21 21 19 20 19 16 15 14 15 16 13 15 17
15 12 10 10 12 10 11 12 12 11 11 12 13 16 17 15 13 10 7 4 10 12 13 13 13 14 17 17 19 20 20 20 19 17 17 17 14 13 15 17 13 14 15
14 13 9 7 9 10 11 12 12 11 11 13 13 15 17 17 15 13 8 3 8 11 12 14 14 14 16 18 19 19 18 17 18 16 19 18 17 14 14 15 14 14 14
17 14 10 11 12 13 12 12 12 12 13 13 13 15 17 18 17 14 12 8 8 10 10 12 15 14 16 18 20 20 20 20 20 19 19 18 19 18 19 18 17 15 12
18 16 14 10 11 13 14 15 17 18 17 18 18 17 17 19 20 20 18 15 14 16 15 16 17 17 18 19 22 24 23 23 22 21 21 21 23 22 20 18 17 16 15
Wind_Direction
229 234 237 241 240 242 241 242 244 250 256 259 257 257 262 257 237 237 239 243 239 245 246 238 228 234 238 245 246 254 226 202 168 175 166 194 180 187 189 195 206 215 220
233 233 237 241 243 244 244 245 248 248 249 254 258 259 260 249 236 239 246 245 242 251 252 239 231 227 236 233 236 247 220 202 196 174 171 165 188 194 199 191 201 218 223
234 234 237 238 241 245 248 251 250 252 253 253 253 251 246 251 244 241 238 245 240 253 252 238 229 218 229 235 231 234 238 240 229 195 164 179 176 197 185 190 195 188 183
238 238 238 238 240 241 251 256 253 255 255 252 248 249 251 252 249 235 235 240 244 244 241 244 237 229 246 238 231 227 236 236 226 211 182 175 171 187 191 183 178 175 174
238 239 246 247 248 244 247 254 258 265 260 252 252 251 250 252 249 244 238 236 247 247 245 243 245 230 233 226 226 234 235 232 225 211 187 172 178 174 191 192 182 187 188
242 246 253 251 245 244 241 249 245 254 246 247 249 251 253 252 250 250 248 245 244 247 247 244 232 229 232 237 242 244 244 233 227 217 209 197 196 197 196 194 186 172 182
244 250 254 257 250 245 244 243 239 223 229 233 252 246 245 250 252 252 251 249 243 242 242 236 229 229 232 236 242 244 235 234 237 242 228 221 209 208 202 196 203 202 197
245 258 261 258 259 249 240 237 234 230 227 221 238 242 243 241 243 248 244 242 242 243 239 232 230 227 224 226 223 216 214 217 223 225 229 227 217 206 210 215 217 200 176
15 296 282 257 253 239 224 234 234 229 223 217 224 231 241 237 242 238 236 237 238 240 241 236 231 228 227 226 212 201 197 196 200 203 200 209 215 204 201 202 194 177 137
285 278 282 281 272 268 256 239 236 224 224 226 232 244 241 235 243 249 235 231 235 238 237 232 227 223 223 219 210 200 187 181 168 156 146 143 152 161 175 199 215 181 147
297 291 284 280 279 273 282 267 249 243 242 238 237 236 236 243 245 240 233 228 229 231 227 219 217 218 213 207 211 205 200 181 163 156 143 130 125 142 164 176 188 208 150
336 331 321 287 285 279 280 281 264 244 234 235 230 235 241 235 230 233 230 228 228 226 223 221 214 206 201 206 209 207 199 180 164 148 135 123 124 123 119 126 139 148 147
356 350 343 316 301 304 294 285 276 258 244 226 216 219 230 242 238 227 227 229 237 238 235 215 209 196 192 199 203 199 190 169 154 140 121 114 112 111 113 111 110 111 107
32 13 5 13 9 325 310 307 279 268 256 238 228 218 226 232 227 227 226 221 221 228 215 201 200 190 187 182 172 167 161 153 144 133 126 125 119 116 116 118 113 108 103
73 60 57 59 62 61 50 27 14 319 256 252 247 245 241 246 250 249 241 224 213 209 184 168 160 154 145 147 147 149 149 144 142 136 133 129 125 120 121 120 120 120 116
99 88 82 83 89 85 73 59 49 42 21 203 261 252 245 252 241 236 223 211 190 164 147 141 136 138 141 146 148 145 145 144 144 141 139 136 132 133 134 135 131 126 121
136 119 106 102 92 88 81 76 67 62 74 83 96 109 129 121 143 154 148 141 145 150 130 133 133 142 143 152 148 148 151 154 154 153 148 141 133 129 134 137 136 128 129
189 177 158 118 95 83 78 72 83 85 65 66 76 93 104 113 109 114 125 123 126 129 131 137 145 145 145 150 151 153 153 151 152 152 154 153 148 146 144 143 144 143 144
196 183 197 176 116 104 92 98 89 96 98 87 90 99 105 103 93 99 107 118 121 126 130 135 141 143 151 155 156 156 153 151 153 154 157 164 168 164 156 157 154 156 160
203 200 182 172 148 136 123 117 108 114 116 116 116 124 130 119 114 109 111 113 124 134 144 147 153 156 159 162 163 164 160 160 161 162 163 163 163 168 167 168 171 171 177
187 192 181 171 164 151 144 155 155 171 152 149 153 151 165 158 155 139 131 132 148 164 159 159 164 174 173 167 165 165 167 167 170 172 171 169 171 178 185 188 184 186 180
195 194 201 207 197 184 188 190 191 193 185 176 171 172 172 175 176 166 169 183 166 167 173 180 186 191 188 181 181 178 176 175 172 172 176 181 185 198 196 187 184 187 193
208 210 221 242 232 222 215 210 201 198 197 198 193 186 188 187 184 188 194 216 196 185 183 185 186 184 185 185 184 185 184 183 181 180 183 182 185 191 189 190 191 186 195
212 211 228 240 233 234 233 227 221 213 205 202 201 201 200 199 202 205 215 212 180 190 195 198 200 195 192 192 193 194 189 190 195 200 195 193 189 185 185 193 197 204 207
215 219 232 247 232 231 237 242 241 238 229 220 213 211 212 215 221 227 226 217 202 205 212 213 210 211 207 202 198 197 198 197 198 199 199 201 200 197 200 204 204 205 208
220 224 227 229 227 240 245 247 251 256 242 235 232 229 226 226 230 234 232 230 225 221 221 217 211 213 212 209 206 200 197 199 206 214 214 214 214 211 212 213 213 215 219
Height
787 790 793 796 800 804 807 810 812 814 816 817 818 819 819 819 820 821 822 824 825 826 827 828 828 829 830 830 830 829 829 829 830 831 833 834 836 838 839 841 843 844 844
781 785 787 791 795 798 802 804 807 808 811 814 816 816 816 816 817 818 820 821 822 824 824 825 825 826 828 828 828 828 827 828 828 830 832 833 835 837 839 840 842 842 841
775 779 783 786 789 792 796 799 802 804 806 808 811 812 812 813 813 814 816 818 819 821 822 822 822 823 824 825 826 826 826 826 827 828 830 831 833 835 838 841 842 843 843
772 775 779 780 783 788 791 793 795 798 801 803 805 807 808 810 810 811 812 814 816 817 818 818 819 820 821 822 823 823 824 824 825 826 827 829 831 833 836 838 841 843 843
768 770 771 774 778 783 786 787 790 791 793 796 800 804 805 806 806 808 809 809 811 813 813 814 816 816 817 818 819 820 821 821 822 823 824 827 829 830 832 834 838 842 843
764 764 766 768 772 776 779 781 783 784 788 789 793 796 800 801 802 803 805 805 806 807 809 810 812 813 814 815 816 817 818 818 818 819 820 822 824 826 828 831 835 840 843
758 761 763 766 767 768 772 775 777 777 778 783 789 790 790 793 796 797 800 801 803 803 804 806 807 809 811 811 812 813 813 815 816 817 818 818 820 822 825 828 831 835 837
756 758 761 762 763 766 767 767 768 770 771 768 776 781 780 782 787 789 794 796 797 798 800 801 803 805 806 808 809 810 811 812 813 814 816 817 818 820 823 825 828 831 834
757 758 759 761 762 763 764 763 762 763 765 768 770 769 772 775 779 782 786 789 791 793 795 796 798 801 803 805 806 807 809 810 811 813 814 816 817 818 819 823 825 827 832
758 758 758 759 760 760 760 759 759 760 760 761 762 762 765 768 771 775 778 780 783 787 789 790 792 795 798 801 803 805 807 808 810 812 814 814 816 818 819 820 821 824 827
757 756 755 756 755 755 755 755 754 754 755 757 758 760 759 763 764 767 771 773 776 780 782 784 786 790 794 797 801 803 805 807 810 811 814 814 816 817 817 819 821 822 825
756 754 753 752 751 751 750 749 748 748 749 750 752 754 755 759 762 763 765 768 771 773 777 779 783 786 790 793 798 801 803 806 809 811 813 814 816 817 818 819 821 824 826
754 752 750 748 748 747 746 745 745 745 745 745 747 749 751 755 758 759 762 767 770 772 774 778 780 782 786 790 795 799 802 805 807 810 811 816 817 817 819 821 824 826 828
754 752 751 749 746 745 746 745 744 744 744 745 746 747 748 749 751 754 756 762 763 766 768 773 776 778 783 785 793 798 801 804 806 810 811 817 819 821 823 824 826 829 831
756 755 754 751 750 747 745 745 745 744 744 744 745 746 746 747 747 749 751 752 754 754 761 768 771 774 779 787 793 797 800 805 810 813 815 819 820 823 826 828 829 832 834
757 757 756 756 754 749 749 749 746 745 745 744 745 745 746 747 747 748 749 749 752 750 754 764 769 773 779 786 792 797 804 806 810 812 818 820 822 825 826 830 834 836 837
758 758 759 759 757 754 753 752 751 750 748 747 746 746 747 747 749 750 751 754 757 758 760 769 772 777 781 789 794 799 802 807 811 814 817 821 824 827 830 832 837 839 843
760 760 761 759 758 757 756 756 756 753 754 752 750 750 751 754 755 755 756 758 761 764 766 771 778 781 786 793 798 801 805 807 810 814 818 821 825 829 832 835 837 840 843
760 761 762 760 760 760 759 760 760 757 757 758 758 759 760 760 759 763 762 764 765 769 771 775 780 785 792 797 799 802 805 806 810 814 818 822 826 829 832 835 837 840 844
759 760 760 761 761 762 761 762 762 762 762 760 762 764 766 765 766 769 770 770 774 776 779 782 786 791 794 797 800 802 804 808 811 815 819 822 826 829 832 834 836 839 842
757 759 760 760 761 761 762 763 763 765 764 763 764 765 769 770 772 774 773 775 778 780 782 785 789 794 796 796 798 801 805 808 812 816 820 821 824 827 830 833 835 839 840
756 757 759 760 761 761 762 764 764 764 765 765 766 767 768 770 773 773 775 776 778 780 783 785 789 792 793 795 799 802 805 809 811 815 819 821 823 826 828 831 834 836 839
754 755 756 758 759 761 762 764 765 765 766 767 768 769 770 770 771 773 775 776 777 780 782 785 788 790 793 795 798 802 805 808 811 815 817 820 822 825 826 829 831 834 836
751 753 754 755 756 758 760 761 762 763 764 765 766 767 768 769 771 772 774 776 777 779 781 784 786 788 791 794 797 800 804 807 810 812 815 818 820 822 824 827 828 831 832
748 750 751 752 753 754 756 758 760 761 762 764 764 765 767 768 770 771 773 775 777 779 780 782 784 786 789 791 794 797 800 804 807 810 813 815 818 820 821 823 825 828 829
745 747 748 750 751 752 753 755 756 756 758 760 761 763 765 766 768 770 772 773 775 777 778 780 782 784 786 789 791 794 797 800 803 805 808 811 814 816 819 821 822 823 825